map of BEN home
BEN - Airport
Location
City:  Benghazi, Libyan Arab Jamahiriya (Libya)
Name:Benina International Airport
ICAO:HLLB
IATA:BEN

Details
Type:Airport (Aerodrome, Airfield)
Use:Public/Civil, Military, International (customs port of entry)
Latitude:3205'48"N (32.096786)
Longitude:2016'10"E (20.269472)
Datum:WGS 1984
Elevation:433 ft (132 m)
Variation:3.62E (WMM2015 magnetic declination)
0.09 annual change
Runways:2
Longest:11732 × 148 ft (3576 × 45 m), paved

Time
Time Zone:UTC+2
Local Time:

Weather
METAR:HLLB 230221Z 14005KT 8000 FEW020 SCT080 19/18 Q1012
TAF:HLLB 221100Z 2212/2312 24012KT 9999 FEW030 SCT080
BECMG 2216/2218 VRB02KT
TEMPO 2218/2224 5000 SHRA SCT025 BKN070
BECMG 2306/2308 24010KT

Related Locations
Nearby:
Farthest:MGS: 11719 mi / 18860 km
Mangaia Island (A'ua'u 'Enua), CK

Find:

   beyond  
but within

Other Information
Maps:
NOTAMs:
Links:
Sources:

  
  • flag of Libyan Arab Jamahiriya (Libya)
  

Sectional Chart

Flight Planning
at skyvector.com

Satellite Image

Google Maps Satellite view

 

Copyright © 2004-2018 Karl L. Swartz. All rights reserved.
The Great Circle Mapper name and logo are trademarks of the Great Circle Mapper.
All other trademarks mentioned herein belong to their respective owners.
Please see credits for attibutions and further copyright information.

  Follow gcmap on Facebook Follow gcmap on Twitter Follow gcmap on Google+ GCmap on LinkedIn

hCard Microformat

Geo Microformat